Location: BGSU Observatory
(41.3799°N, 83.6397°W)
Time: 15:34:31
(UTC-04:00)

Amateur Radio Satellites - All Passes

Search period start: 23 August 2017 15:04
Search period end: 24 August 2017 15:04
Location: BGSU Observatory, 41.3799°N, 83.6397°W

Satellite Date Start Highest point End Downlink Frequencies (MHz)
Time Altitude Azimuth
50 SAT 23 Aug 15:13:31 15:16:42 40° 287° (WNW) 15:19:51 437.505
ITAMSAT 1 23 Aug 15:18:57 15:23:13 26° 65° (ENE) 15:27:29 435.822/435.867
Gurwin Techsat 1B 23 Aug 15:28:57 15:33:37 31° 264° (W) 15:38:18 435.225
Tancredo 1 23 Aug 15:29:00 15:31:55 87° 213° (SSW) 15:34:47 437.200
YUBILEINY 23 Aug 15:32:39 15:39:53 30° 83° (E) 15:47:06 435.215
Oscar 19 23 Aug 15:33:24 15:36:53 18° 268° (W) 15:40:24 437.125/150
AO-7 23 Aug 15:41:30 15:49:45 65° 67° (ENE) 15:58:00 .
ISS 23 Aug 15:51:28 15:54:36 41° 29° (NNE) 15:57:43 437.550
nSIGHT-1 23 Aug 15:56:00 15:59:10 46° 30° (NNE) 16:02:18 .
BEESAT 23 Aug 15:56:01 15:59:37 21° 94° (E) 16:03:11 436.000
UKube-1 23 Aug 15:56:38 16:00:41 41° 289° (WNW) 16:04:43 .
AO-85 23 Aug 16:06:58 16:09:10 14° 250° (WSW) 16:11:27 145.980
DX 1 23 Aug 16:25:38 16:28:08 15° 297° (WNW) 16:30:37 434.975-435.025
ITUPSAT 1 23 Aug 16:31:37 16:36:15 47° 100° (E) 16:40:50 437.325
BEESAT 2 23 Aug 16:32:15 16:33:11 11° 252° (WSW) 16:34:07 435.950
RS-15 23 Aug 16:40:09 16:49:20 23° 1° (N) 16:58:16 29.354- 29.394
MOZHAYETS 4 23 Aug 16:50:29 16:55:06 68° 101° (ESE) 16:59:43
ITAMSAT 1 23 Aug 16:57:37 17:02:28 39° 262° (W) 17:07:20 435.822/435.867
DOVE 4 23 Aug 16:58:00 17:01:38 19° 65° (ENE) 17:05:10 437.250
CUBESAT XI-V 23 Aug 17:18:40 17:22:42 27° 95° (E) 17:26:42 437.345
YUBILEINY 23 Aug 17:27:28 17:36:06 59° 282° (WNW) 17:44:45 435.215
ISS 23 Aug 17:28:15 17:30:56 24° 226° (SW) 17:33:36 437.550
nSIGHT-1 23 Aug 17:32:52 17:35:20 20° 227° (SW) 17:37:46 .
BEESAT 23 Aug 17:33:03 17:37:32 41° 290° (WNW) 17:41:59 436.000
AO-7 23 Aug 17:36:07 17:43:00 28° 265° (W) 17:49:56 .
XW-2C 23 Aug 17:38:19 17:38:44 10° 63° (ENE) 17:39:09 145.795 - 145.815
XW-2F 23 Aug 17:46:42 17:48:15 12° 65° (ENE) 17:49:50 145.980 - 146.000
CUTE-I 23 Aug 17:49:51 17:53:40 20° 62° (ENE) 17:57:28 437.470
HO-68 23 Aug 18:00:50 18:04:29 15° 52° (NE) 18:08:08 435.675
KAITUO 1B 23 Aug 18:05:43 18:08:05 16° 67° (ENE) 18:10:27 145.475/437.950
ITUPSAT 1 23 Aug 18:10:18 18:13:42 20° 296° (WNW) 18:17:06 437.325
KKS-1 23 Aug 18:16:42 18:20:58 45° 99° (E) 18:25:12 437.445
MOZHAYETS 4 23 Aug 18:29:28 18:31:41 13° 298° (WNW) 18:33:54
NUDT-PHONESAT 23 Aug 18:32:41 18:35:58 32° 72° (ENE) 18:39:17 437.300
DOVE 4 23 Aug 18:33:41 18:38:52 57° 260° (W) 18:43:56 437.250
LilacSat-2 23 Aug 18:37:58 18:41:40 57° 75° (ENE) 18:45:25 437.200
XW-2D 23 Aug 18:38:17 18:41:58 55° 74° (ENE) 18:45:40 145.860 - 145.880
STARS 23 Aug 18:46:38 18:50:45 39° 99° (E) 18:54:49 437.465
XW-2B 23 Aug 18:49:21 18:53:06 75° 75° (ENE) 18:56:53 145.730 - 145.750
RS-15 23 Aug 18:55:39 19:06:44 38° 35° (NE) 19:17:18 29.354- 29.394
CUBESAT XI-V 23 Aug 18:55:54 19:00:02 31° 291° (WNW) 19:04:08 437.345
XW-2C 23 Aug 19:08:41 19:12:23 60° 260° (W) 19:16:08 145.795 - 145.815
CUTE 1.7 + AOD 2 23 Aug 19:15:43 19:19:16 27° 69° (ENE) 19:22:53 437.475
XW-2F 23 Aug 19:18:20 19:21:56 47° 260° (W) 19:25:36 145.980 - 146.000
O/OREOS (USA 219) 23 Aug 19:22:27 19:26:50 46° 63° (ENE) 19:31:14 437.305
CUTE-I 23 Aug 19:28:01 19:33:15 56° 259° (W) 19:38:32 437.470
YUBILEINY 23 Aug 19:32:40 19:35:04 11° 306° (NW) 19:37:30 435.215
KAITUO 1B 23 Aug 19:38:25 19:41:47 33° 263° (W) 19:45:13 145.475/437.950
HO-68 23 Aug 19:43:53 19:51:00 73° 71° (ENE) 19:58:09 435.675
UWE-3 23 Aug 19:46:04 19:48:52 18° 66° (ENE) 19:51:38 435.000/436.395/437.385
KKS-1 23 Aug 19:54:14 19:57:10 18° 296° (WNW) 20:00:05 437.445
SEEDS 23 Aug 19:56:52 20:00:55 47° 73° (ENE) 20:05:00 437.485
CUBEBUG 2 23 Aug 19:58:38 20:02:37 41° 72° (ENE) 20:06:33 437.445
NUDT-PHONESAT 23 Aug 20:07:39 20:09:56 16° 267° (W) 20:12:15 437.300
ZACube-1 23 Aug 20:18:14 20:21:23 21° 67° (ENE) 20:24:32 437.345
XW-2A 23 Aug 20:18:39 20:21:57 72° 76° (ENE) 20:25:18 145.665 - 145.685
STARS 23 Aug 20:23:40 20:26:48 20° 295° (WNW) 20:29:55 437.465
AAUSAT CUBESAT 2 23 Aug 20:32:46 20:36:49 54° 74° (ENE) 20:40:55 437.432
AO-73 23 Aug 20:36:57 20:40:33 30° 70° (ENE) 20:44:10 145.935
STRAND 1 23 Aug 20:43:23 20:48:19 47° 99° (E) 20:53:13 437.568
CUTE 1.7 + AOD 2 23 Aug 20:51:31 20:55:02 25° 265° (W) 20:58:37 437.475
O/OREOS (USA 219) 23 Aug 21:02:52 21:05:51 17° 260° (W) 21:08:51 437.305
RS-15 23 Aug 21:08:29 21:20:32 80° 242° (WSW) 21:31:53 29.354- 29.394
DELFI C3 23 Aug 21:11:46 21:13:36 13° 64° (ENE) 21:15:25 145.870
Oscar 11 23 Aug 21:17:28 21:21:43 65° 75° (ENE) 21:26:02 .
UWE-3 23 Aug 21:21:08 21:25:03 38° 262° (W) 21:28:56 435.000/436.395/437.385
HO-68 23 Aug 21:34:15 21:39:21 21° 268° (W) 21:44:27 435.675
SEEDS 23 Aug 21:34:34 21:36:52 14° 269° (W) 21:39:10 437.485
CUBEBUG 2 23 Aug 21:36:47 21:39:25 16° 268° (W) 21:42:02 437.445
FO-29 23 Aug 21:44:31 21:47:22 14° 89° (E) 21:50:09 435.910
PCSat 23 Aug 21:45:45 21:49:09 17° 104° (ESE) 21:52:32 145.827
Max Valier Satellite 23 Aug 21:50:59 21:53:57 24° 70° (ENE) 21:56:57 145.860
ZACube-1 23 Aug 21:53:50 21:57:30 30° 264° (W) 22:01:11 437.345
AAUSAT CUBESAT 2 23 Aug 22:10:52 22:12:36 12° 270° (W) 22:14:21 437.432
AO-73 23 Aug 22:13:39 22:16:48 21° 266° (W) 22:19:59 145.935
STRAND 1 23 Aug 22:23:20 22:27:09 22° 296° (WNW) 22:30:58 437.568
EO-88 23 Aug 22:37:06 22:40:42 73° 76° (ENE) 22:44:21 145.990 - 145.960
DELFI C3 23 Aug 22:43:59 22:47:52 53° 260° (W) 22:51:49 145.870
ESTCUBE 1 23 Aug 22:50:41 22:52:20 12° 61° (ENE) 22:53:59 437.505/2401.250
Oscar 11 23 Aug 22:57:14 22:58:17 11° 271° (W) 22:59:21 .
UNISAT 6 23 Aug 23:03:07 23:07:08 36° 98° (E) 23:11:14 437.425
SO-50 23 Aug 23:09:57 23:14:22 58° 119° (ESE) 23:18:48 436.795
RS-15 23 Aug 23:23:41 23:30:50 19° 263° (W) 23:37:48 29.354- 29.394
Max Valier Satellite 23 Aug 23:24:57 23:27:44 21° 266° (W) 23:30:32 145.860
PCSat 23 Aug 23:26:33 23:31:57 67° 302° (WNW) 23:37:22 145.827
FO-29 23 Aug 23:27:41 23:33:08 64° 288° (WNW) 23:38:14 435.910
TIGRISAT 23 Aug 23:37:01 23:41:22 80° 104° (ESE) 23:45:47 435.000
PRISM 23 Aug 23:44:02 23:48:10 68° 103° (ESE) 23:52:13 437.425
LO-87 23 Aug 23:56:15 23:59:50 88° 65° (ENE) 00:03:26 145.935 - 145.965
SPROUT 24 Aug 00:00:52 00:03:22 15° 64° (ENE) 00:05:52 437.525
AIST 2D 24 Aug 00:09:35 00:12:20 21° 95° (E) 00:15:03 435.315
VELOX 1 24 Aug 00:17:34 00:20:48 20° 65° (ENE) 00:24:01 145.980
M-CUBED/EXP-1 PRIME 24 Aug 00:20:32 00:22:45 14° 95° (E) 00:24:54 437.505
ESTCUBE 1 24 Aug 00:23:59 00:28:29 75° 259° (WSW) 00:33:02 437.505/2401.250
NANOSAT C BR1 24 Aug 00:28:59 00:31:06 14° 91° (E) 00:33:13 145.865
POLYITAN 1 24 Aug 00:36:09 00:39:08 18° 93° (E) 00:42:06 437.675
UNISAT 6 24 Aug 00:40:24 00:43:38 21° 293° (WNW) 00:46:53 437.425
EO-79 24 Aug 00:50:31 00:54:06 26° 96° (E) 00:57:39 145.935-145.965
QB50P2 24 Aug 00:50:56 00:54:39 30° 96° (E) 00:58:22 145.880/145.840
SO-50 24 Aug 00:51:54 00:55:11 19° 318° (NW) 00:58:29 436.795
NO-84 24 Aug 01:11:38 01:14:35 67° 136° (SE) 01:17:26 435.350 FM
PCSat 24 Aug 01:13:52 01:16:25 13° 322° (NW) 01:18:56 145.827
DUCHIFAT 1 24 Aug 01:16:07 01:20:05 40° 99° (E) 01:24:02 145.980
UKube-1 24 Aug 01:16:30 01:19:08 16° 64° (ENE) 01:21:48 .
TIGRISAT 24 Aug 01:16:53 01:17:26 10° 299° (WNW) 01:17:59 435.000
PRISM 24 Aug 01:21:44 01:22:50 11° 299° (WNW) 01:23:58 437.425
SPROUT 24 Aug 01:34:45 01:38:52 48° 260° (W) 01:43:00 437.525
AIST 2D 24 Aug 01:42:36 01:45:27 23° 290° (WNW) 01:48:17 435.315
YUBILEINY 24 Aug 01:43:14 01:47:29 14° 57° (ENE) 01:51:42 435.215
DX 1 24 Aug 01:43:21 01:47:32 46° 72° (ENE) 01:51:43 434.975-435.025
50 SAT 24 Aug 01:43:46 01:47:08 60° 74° (ENE) 01:50:30 437.505
VELOX 1 24 Aug 01:52:45 01:56:57 40° 262° (W) 02:01:10 145.980
M-CUBED/EXP-1 PRIME 24 Aug 01:53:22 01:57:31 49° 293° (WNW) 02:01:21 437.505
NANOSAT C BR1 24 Aug 02:03:01 02:07:05 50° 287° (WNW) 02:11:08 145.865
Oscar 19 24 Aug 02:04:38 02:08:16 19° 92° (E) 02:11:52 437.125/150
Gurwin Techsat 1B 24 Aug 02:06:45 02:08:58 13° 89° (E) 02:11:11 435.225
POLYITAN 1 24 Aug 02:11:09 02:15:01 36° 289° (WNW) 02:18:54 437.675
EO-79 24 Aug 02:26:17 02:29:45 26° 292° (WNW) 02:33:14 145.935-145.965
QB50P2 24 Aug 02:26:57 02:30:18 23° 292° (WNW) 02:33:39 145.880/145.840
BUGSAT 1 24 Aug 02:37:54 02:41:57 85° 279° (W) 02:46:00 437.445
UKube-1 24 Aug 02:50:35 02:54:46 49° 260° (W) 02:58:58 .
NO-84 24 Aug 02:50:35 02:52:15 14° 334° (NNW) 02:53:53 435.350 FM
DUCHIFAT 1 24 Aug 02:52:40 02:55:26 17° 295° (WNW) 02:58:12 145.980
BEESAT 24 Aug 03:02:23 03:06:15 25° 66° (ENE) 03:10:07 436.000
DX 1 24 Aug 03:21:12 03:23:56 16° 267° (W) 03:26:40 434.975-435.025
YUBILEINY 24 Aug 03:37:21 03:46:04 71° 80° (E) 03:54:44 435.215
ITUPSAT 1 24 Aug 03:38:11 03:42:49 55° 72° (ENE) 03:47:28 437.325
Oscar 19 24 Aug 03:42:49 03:47:52 53° 289° (WNW) 03:52:55 437.125/150
Gurwin Techsat 1B 24 Aug 03:44:10 03:49:30 79° 286° (WNW) 03:54:48 435.225
AO-7 24 Aug 03:44:37 03:50:14 19° 91° (E) 03:55:48 .
MOZHAYETS 4 24 Aug 03:52:05 03:56:35 64° 74° (ENE) 04:01:07
BEESAT 3 24 Aug 04:21:54 04:24:50 20° 112° (ESE) 04:27:47 437.485
CUBESAT XI-V 24 Aug 04:21:57 04:25:52 27° 68° (ENE) 04:29:49 437.345
BEESAT 24 Aug 04:39:32 04:43:51 35° 263° (W) 04:48:12 436.000
AO-85 24 Aug 04:41:03 04:43:43 18° 112° (ESE) 04:46:23 145.980
BEESAT 2 24 Aug 04:45:54 04:47:00 11° 108° (ESE) 04:48:05 435.950
ITAMSAT 1 24 Aug 05:09:51 05:15:02 72° 103° (ESE) 05:20:11 435.822/435.867
KKS-1 24 Aug 05:14:30 05:18:43 43° 71° (ENE) 05:22:56 437.445
ITUPSAT 1 24 Aug 05:18:11 05:20:58 15° 268° (W) 05:23:46 437.325
Gurwin Techsat 1B 24 Aug 05:27:06 05:28:33 11° 303° (WNW) 05:30:00 435.225
MOZHAYETS 4 24 Aug 05:32:18 05:34:09 12° 270° (W) 05:36:00
YUBILEINY 24 Aug 05:35:30 05:41:59 24° 280° (W) 05:48:27 435.215
AO-7 24 Aug 05:35:33 05:43:55 86° 291° (WNW) 05:52:13 .
STARS 24 Aug 05:43:04 05:47:04 35° 70° (ENE) 05:51:05 437.465
BEESAT 3 24 Aug 05:58:24 06:02:09 37° 309° (NW) 06:05:56 437.485
CUBESAT XI-V 24 Aug 05:59:01 06:03:07 30° 264° (W) 06:07:17 437.345
AO-85 24 Aug 06:20:08 06:23:48 38° 308° (NW) 06:27:30 145.980
BEESAT 2 24 Aug 06:20:11 06:24:10 66° 304° (NW) 06:28:12 435.950
PCSat 24 Aug 06:32:03 06:35:41 18° 42° (NE) 06:39:20 145.827
DOVE 4 24 Aug 06:33:09 06:37:18 37° 97° (E) 06:41:14 437.250
XW-2C 24 Aug 06:42:21 06:44:23 14° 92° (E) 06:46:26 145.795 - 145.815
ITAMSAT 1 24 Aug 06:50:57 06:53:52 15° 300° (WNW) 06:56:47 435.822/435.867
XW-2F 24 Aug 06:51:02 06:53:32 17° 93° (E) 06:56:02 145.980 - 146.000
KKS-1 24 Aug 06:52:25 06:55:27 18° 267° (W) 06:58:29 437.445
KAITUO 1B 24 Aug 07:09:29 07:12:29 22° 95° (E) 07:15:27 145.475/437.950
HO-68 24 Aug 07:14:41 07:17:21 12° 87° (E) 07:19:59 435.675
STARS 24 Aug 07:20:10 07:23:29 21° 266° (W) 07:26:49 437.465
AO-7 24 Aug 07:29:50 07:35:32 21° 310° (NW) 07:41:14 .
NUDT-PHONESAT 24 Aug 07:36:05 07:39:42 44° 99° (E) 07:43:18 437.300
SO-50 24 Aug 07:40:57 07:45:25 52° 53° (NE) 07:49:56 436.795
XW-2D 24 Aug 07:44:27 07:48:19 85° 102° (ESE) 07:52:10 145.860 - 145.880
NO-84 24 Aug 07:44:37 07:47:28 43° 37° (NE) 07:50:31 435.350 FM
CUTE-I 24 Aug 07:44:49 07:50:04 58° 101° (E) 07:55:17 437.470
LilacSat-2 24 Aug 07:44:57 07:48:51 89° 105° (ESE) 07:52:44 437.200
XW-2B 24 Aug 07:55:39 07:59:30 73° 284° (WNW) 08:03:20 145.730 - 145.750
Tancredo 1 24 Aug 07:55:48 07:57:46 17° 133° (SE) 07:59:44 437.200
STRAND 1 24 Aug 07:59:09 08:04:14 68° 73° (ENE) 08:09:18 437.568
FO-29 24 Aug 07:59:41 08:00:58 11° 54° (NE) 08:02:16 435.910
DOVE 4 24 Aug 08:11:30 08:14:42 20° 295° (WNW) 08:17:46 437.250
PCSat 24 Aug 08:14:20 08:19:47 83° 242° (WSW) 08:25:12 145.827
XW-2C 24 Aug 08:15:08 08:18:45 40° 287° (WNW) 08:22:22 145.795 - 145.815
XW-2F 24 Aug 08:24:16 08:27:44 33° 289° (WNW) 08:31:12 145.980 - 146.000
ISS 24 Aug 08:33:40 08:34:34 11° 129° (SE) 08:35:29 437.550
CUTE 1.7 + AOD 2 24 Aug 08:35:17 08:39:29 52° 99° (E) 08:43:40 437.475
nSIGHT-1 24 Aug 08:36:30 08:37:59 13° 130° (SE) 08:39:27 .
KAITUO 1B 24 Aug 08:43:15 08:46:25 25° 290° (WNW) 08:49:34 145.475/437.950
HO-68 24 Aug 08:58:57 09:06:09 77° 105° (ESE) 09:13:19 435.675
Oscar 11 24 Aug 09:06:30 09:08:14 12° 90° (E) 09:09:59 .
UWE-3 24 Aug 09:09:52 09:13:53 38° 98° (E) 09:17:59 435.000/436.395/437.385
NUDT-PHONESAT 24 Aug 09:11:24 09:13:11 13° 295° (WNW) 09:14:58 437.300
XW-2A 24 Aug 09:12:37 09:16:02 76° 102° (ESE) 09:19:26 145.665 - 145.685
SEEDS 24 Aug 09:15:47 09:20:04 86° 278° (W) 09:24:17 437.485
SO-50 24 Aug 09:22:25 09:25:29 18° 249° (WSW) 09:28:33 436.795
NO-84 24 Aug 09:22:43 09:24:39 15° 232° (SW) 09:26:39 435.350 FM
CUBEBUG 2 24 Aug 09:24:59 09:29:14 83° 285° (WNW) 09:33:35 437.445
RS-15 24 Aug 09:25:11 09:31:29 16° 95° (E) 09:37:46 29.354- 29.394
CUTE-I 24 Aug 09:25:58 09:29:38 19° 298° (WNW) 09:33:18 437.470
Tancredo 1 24 Aug 09:29:53 09:32:41 45° 329° (NNW) 09:35:29 437.200
O/OREOS (USA 219) 24 Aug 09:34:41 09:39:00 52° 108° (ESE) 09:43:22 437.305
FO-29 24 Aug 09:37:36 09:44:52 58° 71° (ENE) 09:51:25 435.910
ZACube-1 24 Aug 09:40:57 09:45:07 46° 99° (E) 09:49:22 437.345
STRAND 1 24 Aug 09:41:15 09:43:52 14° 270° (W) 09:46:29 437.568
AAUSAT CUBESAT 2 24 Aug 09:49:50 09:54:01 79° 285° (WNW) 09:58:11 437.432
AO-73 24 Aug 09:59:43 10:04:02 67° 101° (E) 10:08:26 145.935
PCSat 24 Aug 10:01:28 10:02:16 10° 259° (W) 10:03:04 145.827
UNISAT 6 24 Aug 10:02:06 10:05:54 31° 70° (ENE) 10:09:41 437.425
ISS 24 Aug 10:07:18 10:10:35 84° 321° (NW) 10:13:53 437.550
nSIGHT-1 24 Aug 10:10:40 10:13:57 74° 326° (NNW) 10:17:13 .
CUTE 1.7 + AOD 2 24 Aug 10:12:30 10:14:53 15° 296° (WNW) 10:17:14 437.475
DELFI C3 24 Aug 10:21:32 10:24:20 18° 93° (E) 10:27:06 145.870
PRISM 24 Aug 10:32:52 10:36:52 47° 72° (ENE) 10:40:53 437.425
TIGRISAT 24 Aug 10:35:31 10:39:48 68° 75° (ENE) 10:44:02 435.000
Oscar 11 24 Aug 10:40:26 10:44:45 60° 285° (WNW) 10:49:02 .
UWE-3 24 Aug 10:47:01 10:50:05 20° 293° (WNW) 10:53:13 435.000/436.395/437.385
HO-68 24 Aug 10:47:55 10:53:07 22° 303° (WNW) 10:58:19 435.675
Max Valier Satellite 24 Aug 10:53:47 10:57:09 32° 97° (E) 11:00:30 145.860
M-CUBED/EXP-1 PRIME 24 Aug 11:04:46 11:08:17 22° 60° (ENE) 11:11:52 437.505
Tancredo 1 24 Aug 11:06:49 11:08:23 14° 348° (NNW) 11:09:58 437.200
O/OREOS (USA 219) 24 Aug 11:15:49 11:18:44 17° 306° (NW) 11:21:41 437.305
ZACube-1 24 Aug 11:18:17 11:21:04 17° 294° (WNW) 11:23:52 437.345
NANOSAT C BR1 24 Aug 11:22:25 11:23:32 11° 62° (ENE) 11:24:40 145.865
FO-29 24 Aug 11:23:55 11:30:05 28° 266° (W) 11:35:49 435.910
POLYITAN 1 24 Aug 11:29:28 11:31:49 15° 64° (ENE) 11:34:11 437.675
RS-15 24 Aug 11:29:31 11:41:35 71° 116° (ESE) 11:53:48 29.354- 29.394
AO-73 24 Aug 11:38:01 11:39:44 12° 297° (WNW) 11:41:28 145.935
EO-88 24 Aug 11:39:04 11:42:45 84° 285° (WNW) 11:46:26 145.990 - 145.960
UNISAT 6 24 Aug 11:39:17 11:42:38 22° 266° (W) 11:45:59 437.425
EO-79 24 Aug 11:43:15 11:46:23 21° 67° (ENE) 11:49:31 145.935-145.965
QB50P2 24 Aug 11:43:45 11:47:04 23° 68° (ENE) 11:50:23 145.880/145.840
ISS 24 Aug 11:44:59 11:47:27 19° 343° (NNW) 11:49:56 437.550
nSIGHT-1 24 Aug 11:48:23 11:50:45 18° 344° (NNW) 11:53:08 .
DELFI C3 24 Aug 11:55:36 11:59:10 32° 289° (WNW) 12:02:42 145.870
DUCHIFAT 1 24 Aug 12:07:53 12:11:31 30° 70° (ENE) 12:15:10 145.980
PRISM 24 Aug 12:10:07 12:12:23 14° 268° (W) 12:14:38 437.425
AIST 2D 24 Aug 12:15:53 12:19:20 64° 259° (W) 12:22:49 435.315
ESTCUBE 1 24 Aug 12:16:54 12:20:31 23° 94° (E) 12:24:04 437.505/2401.250
Max Valier Satellite 24 Aug 12:28:17 12:30:44 17° 293° (WNW) 12:33:09 145.860
M-CUBED/EXP-1 PRIME 24 Aug 12:38:02 12:42:22 43° 257° (WSW) 12:46:50 437.505
BEESAT 3 24 Aug 12:38:19 12:40:43 15° 42° (NE) 12:43:05 437.485
Tancredo 1 24 Aug 12:43:10 12:44:29 12° 8° (N) 12:45:47 437.200
NANOSAT C BR1 24 Aug 12:54:31 12:58:40 70° 258° (WSW) 13:02:51 145.865
LO-87 24 Aug 12:56:15 12:59:47 73° 284° (WNW) 13:03:18 145.935 - 145.965
BEESAT 2 24 Aug 13:02:27 13:03:13 10° 37° (NE) 13:04:00 435.950
POLYITAN 1 24 Aug 13:03:08 13:07:12 49° 260° (W) 13:11:16 437.675
AO-85 24 Aug 13:10:26 13:13:43 21° 46° (NE) 13:17:09 145.980
EO-79 24 Aug 13:18:07 13:21:55 33° 263° (W) 13:25:45 145.935-145.965
QB50P2 24 Aug 13:19:01 13:22:43 30° 264° (W) 13:26:25 145.880/145.840
SPROUT 24 Aug 13:20:25 13:24:01 26° 96° (E) 13:27:35 437.525
Oscar 19 24 Aug 13:21:17 13:25:37 28° 66° (ENE) 13:30:00 437.125/150
ISS 24 Aug 13:23:04 13:24:53 14° 3° (N) 13:26:41 437.550
nSIGHT-1 24 Aug 13:26:17 13:28:05 14° 4° (N) 13:29:54 .
Gurwin Techsat 1B 24 Aug 13:27:05 13:31:06 22° 63° (ENE) 13:35:07 435.225
BUGSAT 1 24 Aug 13:27:11 13:31:13 64° 74° (ENE) 13:35:13 437.445
VELOX 1 24 Aug 13:42:27 13:46:31 36° 98° (E) 13:50:34 145.980
RS-15 24 Aug 13:43:30 13:55:00 43° 321° (NW) 14:06:34 29.354- 29.394
DUCHIFAT 1 24 Aug 13:43:55 13:47:11 22° 265° (W) 13:50:28 145.980
ESTCUBE 1 24 Aug 13:53:14 13:57:21 34° 291° (WNW) 14:01:26 437.505/2401.250
BEESAT 3 24 Aug 14:14:44 14:18:42 64° 241° (WSW) 14:22:34 437.485
Tancredo 1 24 Aug 14:17:38 14:20:18 32° 28° (NNE) 14:22:57 437.200
50 SAT 24 Aug 14:37:31 14:40:51 57° 101° (E) 14:44:08 437.505
BEESAT 2 24 Aug 14:37:39 14:41:43 72° 56° (ENE) 14:45:43 435.950
UKube-1 24 Aug 14:37:40 14:41:17 26° 96° (E) 14:44:52 .
AO-7 24 Aug 14:43:28 14:50:27 31° 56° (ENE) 14:57:25 .
YUBILEINY 24 Aug 14:46:40 14:51:10 15° 75° (ENE) 14:55:39 435.215
AO-85 24 Aug 14:50:06 14:54:19 49° 242° (WSW) 14:58:50 145.980
ITAMSAT 1 24 Aug 14:51:21 14:54:12 15° 60° (ENE) 14:57:03 435.822/435.867
SPROUT 24 Aug 14:56:17 14:59:49 26° 292° (WNW) 15:03:22 437.525
